Vertical_Velocity
0 0 0 1 0 -0 -1 -0 0 0 0 0 -0 -0 -1 -0 0 0 0 0 0 0 1 0 0 -0 -0 0 0 1 1 0 0 -0 -1 -1 -1 -1 -1 -0 -0 -0 -1 -0 0 0 0 -0 0 0 1 0 0 0 0 0 0 0 1 1 0 0 0 0 0 0 0 0 0 0 0 -0 -0 -0 -0 -0 -1 -1 -1 -1 -0 -0 -0 -0 -0 -0 -1 -1 -1 -1 -1 -1 -1 -1 -1 -1 -1 -1 -1 -1 -1 -1 -1
0 0 0 0 0 -0 -1 0 0 0 0 0 0 -0 -1 -1 -0 0 0 0 0 0 1 0 0 -0 -0 -0 0 1 1 0 0 0 -0 -1 -1 -1 -1 -0 -0 -0 -1 -0 -0 0 0 -0 -0 -0 0 0 0 0 0 0 0 0 0 1 1 0 0 1 1 1 0 0 0 0 0 -0 -0 -0 -0 -0 -0 -1 -1 -0 -0 -1 -0 -0 -0 -0 -0 -1 -1 -1 -1 -1 -1 -1 -1 -1 -1 -1 -1 -1 -1 -1 -1
0 0 0 0 0 -0 -0 -0 0 0 0 0 0 0 -1 -1 -0 -0 0 0 1 1 1 1 0 -0 -0 -0 0 1 1 1 0 0 -0 -0 -1 -1 -1 -1 -0 -0 -1 -0 -0 -0 -0 -0 -0 -0 -0 0 0 0 0 -0 0 0 0 1 1 0 0 1 1 1 1 1 0 0 0 0 0 0 0 0 -0 -0 -0 -0 -0 -0 -0 -0 -0 -0 -0 -0 -0 -0 -0 -0 -1 -1 -1 -1 -1 -1 -1 -1 -1 -2 -2
-0 0 1 1 0 -0 -0 -0 0 0 0 1 1 0 -0 -1 -1 -1 -0 0 0 1 1 1 0 -0 -0 -0 0 1 1 1 0 0 0 -0 -1 -1 -1 -1 -1 -1 -1 -1 -0 -0 -0 -0 -0 -0 -0 0 0 0 0 -0 -0 -0 0 1 1 0 1 1 1 1 1 1 0 0 0 0 0 0 0 0 0 0 -0 -0 0 0 0 0 -0 -0 -0 -0 -0 -0 -0 -0 -0 -1 -1 -1 -1 -1 -1 -1 -1 -1 -2
-0 0 1 1 0 0 -0 0 0 0 0 0 0 1 0 -0 -1 -1 -1 -0 0 0 1 1 0 -0 -0 -0 0 1 1 1 0 0 0 -0 -0 -1 -1 -1 -0 -0 -1 -1 -1 -1 -1 -0 -0 -0 -0 0 0 1 1 0 -0 -0 0 0 0 1 1 1 1 1 1 1 1 1 1 0 0 0 0 1 0 0 0 0 0 0 0 0 0 -0 -0 -0 -0 -0 -0 -0 -0 -0 -1 -1 -1 -1 -1 -1 -1 -1 -1
-1 -0 0 0 0 0 0 0 0 0 0 0 0 0 0 0 -0 -1 -1 -1 -0 0 0 0 0 -0 -0 -0 0 0 1 1 0 0 0 -0 -0 -1 -1 -1 -0 -0 -0 -1 -1 -1 -1 -1 -1 -0 -0 0 0 0 1 0 0 -0 0 0 0 0 1 1 1 1 1 1 1 1 1 1 1 1 1 1 1 1 0 0 0 0 0 0 0 0 0 -0 -0 -0 -0 -0 -0 -0 -1 -1 -1 -1 -1 -1 -1 -1 -1
-0 -0 0 0 0 0 0 0 0 0 0 0 0 0 0 0 -0 -1 -1 -1 -1 -0 0 0 0 -0 -0 -0 -0 0 0 0 0 0 0 -0 -0 -1 -1 -1 -0 -0 -0 -0 -0 -1 -1 -1 -1 -0 -0 -0 0 0 0 1 0 0 -0 -0 0 0 1 1 1 1 1 1 1 1 1 1 1 1 1 1 1 1 1 1 1 1 1 0 0 0 0 -0 -0 -0 -0 -0 -0 -0 -1 -1 -1 -1 -1 -1 -1 -1 -1
-0 -0 -0 -0 -0 -0 0 0 0 0 1 0 0 0 0 0 0 -0 -1 -1 -1 -0 0 0 0 -0 -0 -1 -0 -0 0 0 0 0 -0 -0 -0 -0 -1 -1 -1 -0 -0 -0 -0 -0 -0 -1 -1 -1 -0 -0 -0 -0 0 0 0 0 0 -0 0 0 0 0 1 1 1 1 1 1 1 1 1 1 1 1 1 1 1 1 1 1 1 1 1 1 0 0 0 0 0 -0 -0 -0 -0 -1 -1 -0 -0 -1 -1 -1 -1
0 0 0 0 -0 -0 -0 0 0 0 1 0 0 0 0 0 0 -0 -0 -1 -1 -0 -0 0 0 -0 -0 -1 -0 -0 0 0 0 0 -0 -0 -0 -0 -0 -1 -1 -1 -0 -0 -0 -0 -0 -0 -1 -1 -1 -0 -0 -0 -0 0 0 0 0 0 -0 0 0 0 0 0 0 0 1 1 1 1 1 1 1 1 1 1 1 1 1 1 1 1 1 1 1 1 1 1 0 0 0 -0 -0 -0 -0 -0 -0 -1 -1 -1 -1
0 0 0 0 0 -0 -0 -0 0 0 1 1 0 0 0 0 0 0 0 -0 -0 -0 -0 0 0 0 -0 -0 -1 -0 -0 0 0 0 -0 -0 -0 -0 -0 -0 -1 -1 -0 -0 -0 -0 -0 -1 -1 -1 -1 -0 -0 -0 -0 0 0 0 0 0 -0 -0 -0 -0 -0 0 0 0 0 1 1 1 1 1 1 1 1 1 1 1 1 1 1 1 1 1 1 1 1 1 1 1 0 0 0 0 -0 -0 -0 -0 -1 -1 -1
0 0 0 0 0 -0 -0 -0 -0 0 0 1 1 0 0 0 0 0 0 0 -0 -0 -0 -0 0 0 0 -0 -0 -0 -0 -0 0 0 -0 -0 -0 -0 -0 -0 -0 -0 -0 -0 -0 -0 -0 -0 -1 -1 -1 -1 -1 -1 -0 -0 0 0 0 0 -0 -0 -0 -0 -0 -0 0 0 0 0 0 0 0 1 1 1 1 1 1 1 1 1 1 1 1 1 2 2 2 2 1 1 1 1 0 0 0 0 0 -0 -0 -0 -1
0 -0 0 0 0 -0 -0 -1 -0 -0 0 0 0 0 -0 -0 0 0 0 0 0 -0 -0 -0 0 0 0 -0 -0 -0 -0 -0 -0 0 0 -0 -0 -0 -0 -0 -0 -0 -0 -0 0 0 0 0 -0 -0 -1 -1 -1 -1 -0 -0 0 0 0 0 0 -0 -1 -0 -0 -0 0 0 0 -0 -0 0 0 0 1 1 1 1 1 1 2 2 1 1 1 1 1 1 2 2 2 2 1 1 1 1 0 0 0 0 -0 -0 -0
-0 -0 -0 -0 -0 -0 -1 -1 -1 -0 0 0 0 -0 -0 -0 0 0 1 0 0 -0 -0 -0 0 0 0 0 -0 -0 -0 -0 -0 0 0 0 0 -0 -0 -0 -0 -0 -0 -0 -0 0 0 0 0 0 -0 -0 -0 -0 -0 -0 -0 0 0 0 0 -0 -1 -0 -0 -0 0 0 -0 -0 -0 -0 0 0 0 1 1 1 1 1 1 1 1 1 1 1 1 1 1 1 1 1 1 1 1 1 1 0 0 0 -0 -0 -0
-1 -1 -1 -1 -1 -1 -1 -1 -1 -1 -0 -0 -0 -0 -0 -0 0 0 1 0 0 0 0 0 0 0 0 0 -0 -0 -0 -0 -0 0 0 0 0 0 0 0 -0 -0 -0 -0 -0 0 0 0 0 0 0 0 -0 -0 -0 -0 -0 -0 -0 0 0 -0 -0 -0 -0 -0 -0 -0 -0 -0 -0 -0 -0 -0 -0 0 0 1 1 1 1 1 1 1 1 1 1 1 1 1 1 1 1 1 1 1 0 0 0 0 -0 -0 -0
-1 -1 -1 -1 -1 -1 -2 -2 -2 -1 -1 -0 0 0 -0 0 0 0 0 0 0 0 0 0 0 0 -0 -0 -0 -0 -0 -1 -0 -0 0 0 0 0 0 0 0 -0 -0 -0 -0 -0 -0 0 0 0 1 0 0 -0 -0 -0 -0 -1 -0 -0 -0 -0 -0 -0 -0 -0 -0 -0 -0 -0 -0 -0 -0 -0 -0 -0 0 0 0 0 1 1 1 1 1 1 1 1 1 1 1 1 1 1 1 1 0 0 0 0 -0 -0 -0
-1 -1 -1 -1 -1 -1 -2 -2 -2 -2 -1 -1 -0 -0 0 1 1 0 0 1 0 0 0 0 0 -0 -0 -0 0 -0 -0 -0 -0 -0 -0 0 0 0 1 1 0 0 0 -0 -0 -0 -0 -0 -0 0 0 0 0 0 0 -0 -0 -0 -0 -0 -0 -0 -0 -0 -0 -0 -0 -0 -0 -0 -0 -0 -0 -0 -0 -0 -0 -0 -0 0 0 0 1 1 1 1 1 1 1 1 1 1 1 1 1 1 0 0 0 0 0 0 -0
-1 -0 0 0 0 -0 -1 -2 -2 -3 -2 -2 -1 -1 0 2 1 -0 0 0 -0 -0 -0 -0 0 0 0 0 0 0 -0 -0 -0 -0 -0 -0 0 0 1 1 1 1 0 0 -0 -0 -0 -1 -0 -0 -0 0 0 0 0 0 0 -0 -0 -0 -0 -0 -0 -0 -0 -0 -0 -0 -0 -0 -1 -1 -0 -0 -0 -0 -1 -1 -1 -0 -0 0 0 0 1 1 1 1 1 1 1 1 1 1 1 1 1 0 0 0 0 0 0
-0 0 1 1 1 0 -0 -1 -2 -2 -2 -2 -1 -1 -0 1 0 0 1 -1 -1 -1 -1 -0 -0 0 0 0 0 0 0 0 0 0 0 -0 -0 0 0 1 1 1 1 0 0 -0 -0 -1 -1 -1 -0 -0 0 0 0 0 0 0 -0 -0 -0 -0 -0 -0 -0 -0 -0 -0 -0 -0 -0 -1 -0 -0 -0 -1 -1 -1 -1 -1 -0 -0 -0 -0 0 0 1 1 1 1 1 1 1 1 1 1 1 1 0 0 0 0 0
-1 -0 0 -0 -0 0 -0 -1 -1 -2 -2 -1 -1 -1 -0 -0 -1 -0 2 -0 -1 -1 -1 -1 -0 -0 0 0 0 0 0 0 1 1 0 0 0 0 0 1 1 1 1 0 0 0 -0 -0 -0 -1 -0 -0 -0 -0 0 0 0 0 0 0 0 -0 -0 -0 -0 -0 -0 -0 -0 -0 -0 -0 -1 -0 -0 -0 -1 -1 -1 -1 -0 -0 -0 -0 -0 0 0 0 0 1 1 1 1 1 1 1 1 1 1 1 0 0 0
-1 -1 -2 -2 -2 -1 -1 -1 -1 -1 -1 -1 -1 -1 -0 -0 -1 -1 1 -1 -1 -2 -2 -1 -0 -0 0 -0 -0 -0 -0 0 0 1 1 1 1 1 1 1 1 1 1 1 0 0 0 0 -0 -0 -0 -0 -0 -0 -0 -0 0 0 0 0 0 0 -0 -0 -0 -0 -0 -0 -0 -0 -0 -0 -0 -0 -0 -0 -0 -0 -1 -0 -0 -0 -0 -0 -0 -0 0 -0 -0 -0 0 0 1 1 1 1 1 1 1 1 1 0 0
-1 -2 -3 -3 -3 -2 -1 -1 -1 -1 -1 -1 -1 -1 -1 -1 -1 -1 -1 -2 -2 -2 -2 -1 -0 -0 0 -0 -0 -0 -1 -0 -0 0 0 0 1 1 1 1 1 1 0 1 1 0 0 0 0 0 -0 -0 -0 -0 -0 -0 -0 -0 0 0 0 0 -0 -0 -0 -1 -1 -0 -0 -0 -0 -0 -0 -0 -0 -0 -0 -0 -0 -0 -0 -0 -0 -0 -0 -0 -0 -0 -0 -0 -0 -0 0 0 1 1 1 1 1 1 1 1 1
-1 -1 -2 -3 -2 -2 -1 -1 -1 -1 -0 -1 -1 -1 -1 -1 -1 -1 -2 -2 -2 -2 -2 -1 -1 -0 -0 -0 -0 -1 -1 -1 -1 -1 -1 -0 0 0 0 1 1 1 0 0 0 0 1 1 1 0 0 -0 -0 -1 -0 -1 -1 -1 -0 -0 0 0 0 -0 -0 -1 -1 -1 -1 -0 -0 -0 -0 -0 -0 -0 -0 -0 -0 -0 -0 -0 -0 -0 -0 -0 -0 -1 -1 -1 -1 -0 0 0 0 1 1 1 1 1 0 0 0
-0 -0 -1 -2 -2 -2 -1 -1 -0 0 -0 -0 -0 -0 -1 -0 -1 -1 -1 -1 -2 -2 -2 -2 -1 -1 -1 -0 -1 -1 -1 -1 -1 -1 -1 -1 -1 -0 0 0 1 1 0 0 0 0 1 1 1 1 0 -0 -0 -0 -0 -1 -1 -1 -1 -0 -0 -0 0 0 -0 -0 -0 -1 -1 -1 -0 -0 -0 -0 -0 -0 -0 -0 -0 -0 -0 -0 -0 -0 -0 -0 -1 -1 -1 -1 -1 -0 -0 -0 0 0 0 0 0 0 0 0 0
1 1 -1 -1 -2 -2 -1 -0 0 0 0 0 0 0 -0 0 -0 -1 -1 -1 -2 -2 -2 -2 -2 -1 -1 -1 -1 -2 -2 -2 -2 -1 -2 -1 -1 -1 -0 -0 0 0 0 0 0 1 1 1 1 1 0 0 -0 -0 -0 -1 -1 -1 -1 -1 -0 -0 0 0 0 0 0 0 -0 -0 -0 -0 -0 -0 -0 -0 -0 -0 -0 -0 -0 -0 -0 -0 -0 -0 -0 -0 -0 -0 -0 -0 -0 -0 -0 -0 0 0 0 0 0 -0 -0
2 1 0 -1 -1 -1 -1 -0 0 1 1 1 1 1 1 0 -0 -1 -1 -1 -1 -1 -2 -2 -2 -1 -1 -1 -2 -2 -2 -2 -2 -2 -2 -1 -1 -1 -1 -0 -0 0 0 0 1 1 1 1 1 1 0 -0 -0 -1 -1 -1 -0 -1 -1 -1 -1 -0 0 0 1 1 1 1 1 0 0 0 -0 -0 -0 -0 -0 -0 -0 -0 -0 -1 -1 -0 -0 -0 -0 -0 -0 -0 -0 0 -0 -0 -0 -0 -0 -0 -0 -0 -0 -0 -0
2 1 0 0 0 0 0 1 1 2 2 2 2 2 1 0 -0 -0 -0 -1 -1 -1 -2 -2 -2 -1 -1 -2 -2 -2 -2 -2 -2 -2 -2 -2 -2 -1 -1 -1 -0 -0 0 0 0 1 1 1 1 1 0 0 -0 -1 -1 -1 -0 -0 -1 -1 -1 -0 0 0 0 1 1 1 1 1 1 0 0 0 -0 -0 -1 -1 -1 -1 -1 -1 -1 -1 -1 -1 -1 -1 -1 -0 -0 0 0 -0 -0 -0 -0 -0 -0 -0 -0 -0 -0
3 3 2 2 2 3 3 3 3 2 2 2 2 2 1 -0 2 4 3 -0 -1 -1 -1 -2 -2 -2 -2 -2 -1 -1 -1 -1 -1 -1 -1 -2 -2 -1 -1 -1 -0 -0 0 -0 -0 0 0 1 1 1 1 0 -0 -1 -1 -1 -0 0 -0 -0 -0 -0 0 0 0 0 1 1 1 1 1 1 0 0 -0 -0 -1 -1 -1 -1 -1 -1 -1 -1 -1 -1 -1 -1 -1 -0 -0 -0 -0 -0 -0 -0 -0 -0 -0 -0 -0 -0 -0
7 7 6 6 6 5 4 3 2 2 1 1 1 0 0 -0 3 6 4 -1 -1 -1 -1 -2 -2 -1 -1 -0 -1 -1 -1 -1 -0 -0 -0 -1 -1 -1 -1 -1 -0 -0 -1 -1 -1 -1 -0 0 0 0 0 0 0 -0 -1 -1 -0 0 0 -0 -0 -0 -0 0 0 0 0 0 0 0 0 0 0 0 -0 -0 -0 -0 -1 -1 -1 -1 -1 -1 -1 -1 -1 -1 -1 -1 -1 -1 -0 -0 -0 -0 -0 -0 -0 -0 -0 -0 -0
9 8 7 6 4 3 2 0 -0 -0 -1 -1 -1 -1 -1 -0 1 2 1 -0 -1 -1 -1 -1 -1 -1 -0 1 -0 -2 -2 -1 -0 0 0 -0 -0 0 1 -1 -1 -1 -1 -1 -1 -1 -1 -1 -0 -0 -0 -0 -0 -0 -1 -1 -0 0 1 0 -0 -0 -0 0 0 0 0 0 0 0 -0 -0 -0 -0 -0 -0 -0 -0 -0 -0 -0 -0 -1 -1 -1 -1 -1 -1 -1 -1 -1 -1 -1 -1 -1 -1 -0 -0 -0 -0 -0 -0 -0
3 2 1 -0 -1 -1 -1 -1 -1 -0 -1 -0 -0 -0 -0 0 0 0 0 0 0 -0 -0 -1 -1 -1 -1 0 -0 -1 -1 -1 0 0 1 5 5 3 -1 -1 -2 -2 -2 -1 -1 -1 -1 -1 -1 -1 -1 -1 -1 -0 -1 -1 -1 -0 1 1 0 0 -0 -0 0 0 0 0 0 -0 -0 -0 -0 -0 -0 -1 -1 -1 -0 -0 -0 -0 -0 -1 -1 -1 -1 -1 -0 -0 -0 -1 -1 -1 -1 -1 -1 -0 -0 -0 -0 -0 -0
-2 -1 -1 2 2 0 -0 1 1 1 1 1 0 0 -0 0 0 0 -0 0 0 0 1 -0 -1 -1 -2 -1 -0 0 -0 0 0 1 1 10 10 5 -6 -4 -3 -2 -2 -2 -2 -2 -1 -1 -1 -1 -1 -1 -1 -1 -1 -1 -2 -1 -0 0 1 1 0 0 0 0 0 0 -0 -0 -0 -1 -1 -1 -1 -1 -1 -1 -1 -0 -0 0 0 -0 -0 -1 -1 -0 -0 0 0 0 -0 -0 -0 -0 -0 -0 -0 -0 -0 -0 -0
-1 -1 -1 5 10 10 3 3 1 0 1 0 -0 -0 -1 -0 0 -0 -1 -0 -0 0 1 0 -0 -1 -2 -2 -1 -0 1 1 1 0 0 3 5 5 -1 -4 -4 -2 -2 -2 -2 -2 -2 -1 -1 -1 -1 -1 -1 -1 -1 -1 -2 -2 -2 -1 0 1 1 1 1 1 1 0 -0 -1 -1 -1 -1 -1 -1 -1 -1 -1 -1 -1 -0 -0 0 0 0 -0 -0 -0 -0 -0 -0 -0 -0 0 0 0 0 0 0 0 0 0 -0
4 3 0 7 13 14 5 1 -1 -1 -1 -1 -1 -2 -1 -1 -0 -1 -1 -1 -0 0 1 1 0 -1 -2 -2 -2 -1 1 1 1 -0 -1 -0 1 2 3 -0 -3 -4 -3 -2 -2 -2 -1 -1 -1 -1 -1 -1 -1 -1 -1 -1 -2 -3 -3 -2 -1 0 1 1 1 1 1 0 -0 -1 -1 -1 -1 -1 -1 -1 -1 -1 -1 -1 -1 -1 -1 -0 -0 -0 -0 0 0 -0 -1 -1 -1 -0 -0 0 0 0 0 1 1 0 0
3 3 -2 5 12 13 4 -2 -3 -3 -2 -2 -2 -2 -2 -1 -1 -1 -1 -1 -0 0 1 1 -0 -1 -3 -2 -2 -1 0 0 0 -0 -1 -1 -0 0 1 0 -2 -3 -3 -2 -2 -1 -1 -1 -1 -2 -1 -1 -1 -1 -1 -1 -1 -2 -3 -3 -3 -1 -0 0 0 0 0 -0 -0 -1 -1 -1 -1 -1 -1 -1 -1 -1 -1 -1 -1 -1 -1 -1 -1 -1 -1 2 1 -0 -0 -1 -1 -1 -1 -1 -1 -0 0 0 0 0 0
-0 -1 -4 -1 5 8 3 -2 -4 -5 -4 -3 -3 -3 -2 -2 -1 -1 -1 -0 0 0 1 0 -1 -2 -2 -2 -1 -1 -1 -1 -1 -1 -1 -1 -1 -0 1 0 -1 -2 -2 -2 -1 -1 -1 -1 -2 -2 -1 -1 -1 -1 -1 -1 -1 -1 -2 -3 -3 -3 -1 -1 -1 -1 -1 -1 -1 -1 -1 -1 -1 -1 -1 -1 -1 -1 -1 -1 -1 -1 -2 -2 -2 -2 -2 -0 -0 -0 2 0 -0 -0 -1 -1 -1 -1 -1 -0 -0 0 0
-2 -2 -2 -2 0 3 3 -0 -3 -4 -3 -3 -3 -3 -3 -2 -2 -1 -0 0 0 1 0 -0 -1 -1 -2 -0 -0 -1 -2 -2 -1 -1 -1 -1 -1 -1 0 -0 -0 -1 -1 -1 -1 -0 -0 -1 -2 -2 -1 -0 -0 -0 -1 -1 -1 -1 -1 -2 -3 -3 -3 -2 -1 -1 -1 -1 -1 -1 -1 -1 -1 -1 -1 -1 -1 -1 -1 -1 -1 -1 -1 -2 -2 -2 -2 -2 -1 -0 1 0 -0 -0 -1 -1 -1 -1 -1 -1 -1 -0 -0
-2 -2 -2 -2 -1 1 2 1 -1 -2 -2 -2 -2 -2 -2 -2 -2 -2 -1 0 1 1 0 -0 -1 -1 -1 0 0 -1 -2 -2 -1 -1 -1 -1 -1 -1 -0 0 0 0 -0 -1 -1 0 1 -1 -1 -1 -0 0 0 0 -0 -1 -2 -2 -1 -1 -1 -2 -3 -2 -2 -1 -1 -1 -1 -1 -1 -1 -1 -1 -1 -1 -1 -1 -1 -1 -1 -1 -1 -2 -2 -2 -2 -2 -1 -1 -1 -1 -1 -1 -1 -1 -1 -1 -1 -1 -1 -1 -1
-3 -3 -2 -2 -2 -1 1 1 0 -1 -1 -1 -1 -1 -1 -2 -2 -1 -1 0 1 1 1 0 -1 -1 -1 0 1 -0 -1 -1 -1 -1 -1 -1 -1 -1 -0 -0 0 1 0 -0 0 0 0 -1 -1 -1 0 0 0 0 -0 -1 -1 -2 -1 -1 -1 -1 -1 -2 -2 -2 -1 -0 0 0 -0 -0 -1 -1 -1 -1 -1 -1 -1 -1 -1 -1 -2 -2 -2 -2 -2 -2 -2 -1 -1 -1 -2 -2 -1 -1 -1 -1 -1 -1 -1 -1 -1
-3 -3 -3 -3 -2 -1 0 1 0 -0 -1 -1 -1 -1 -1 -1 -1 -1 -1 0 0 1 1 0 -0 -1 -1 0 1 1 -0 -1 -1 -1 -1 -0 -0 -0 -1 -0 0 1 1 1 1 1 0 -1 -1 -1 -0 0 1 1 0 0 -1 -1 -1 -1 -1 -0 0 -1 -2 -3 -2 -1 0 1 1 0 -0 -0 -0 -0 -0 -1 -1 -1 -1 -1 -2 -2 -2 -2 -2 -2 -2 -2 -2 -1 -1 -1 -1 -1 -1 -1 -1 -1 -1 -1 -1
-3 -3 -3 -3 -2 -1 0 -0 -0 -1 -1 -1 -1 -1 -0 -0 -1 -1 -1 -1 -0 -0 0 0 -0 -1 -1 -0 0 0 0 -0 -0 -1 -1 -0 -0 -0 -1 -0 0 1 1 1 1 1 0 -0 -1 -1 -1 -0 0 1 1 0 0 0 0 -0 -1 -1 0 -0 -1 -2 -3 -2 -1 0 0 0 -0 -0 -0 -0 -0 -0 -1 -1 -1 -1 -2 -2 -2 -2 -2 -2 -2 -2 -2 -2 -1 -1 -1 -1 -1 -1 -1 -1 -1 -1 -1
-3 -3 -3 -3 -2 -1 -1 -1 -2 -2 -1 -1 -1 -1 -0 -0 -0 -1 -2 -1 -1 -1 -1 -1 -1 -1 -1 -1 -0 0 0 -0 0 -0 -0 -0 -0 -0 -1 -0 0 0 1 1 1 1 1 0 -1 -1 -1 -1 -0 0 0 0 1 1 0 -0 -1 -1 -0 -0 -1 -1 -2 -1 -1 -1 -1 -1 -1 -1 -0 -0 -0 -0 -1 -1 -1 -1 -1 -1 -1 -2 -2 -2 -2 -2 -2 -2 -2 -1 -1 -1 -1 -1 -1 -1 -1 -1 -0
-3 -3 -3 -2 -1 -1 -2 -3 -3 -2 -2 -1 -1 -1 -1 -1 -0 -1 -1 -2 -2 -2 -2 -2 -1 -1 -1 -1 -1 -0 -0 -0 -0 0 -0 -1 -0 -0 -0 -0 0 0 1 1 1 1 1 0 -0 -1 -1 -1 -0 -0 0 0 0 0 0 -0 -1 -1 -1 -1 -1 -1 -1 -1 -0 -1 -1 -2 -2 -1 -1 -1 -1 -1 -0 -0 -0 -1 -1 -1 -1 -1 -2 -2 -2 -2 -2 -2 -2 -2 -2 -1 -1 -1 -1 -1 -1 -1 -0
-3 -3 -2 -1 -0 -1 -2 -3 -3 -3 -2 -1 -1 -1 -1 -1 -1 -1 -2 -2 -2 -2 -2 -2 -2 -1 -1 -1 -1 -1 -0 -1 -1 -0 -0 -0 -0 -0 -0 -0 -0 0 0 0 1 1 1 1 0 0 -0 -0 -0 -0 -0 0 0 0 -0 -0 -0 -0 -0 -1 -1 -0 -0 -0 0 0 -0 -1 -1 -1 -1 -1 -1 -1 -1 -1 -0 -0 -0 -1 -1 -1 -1 -1 -2 -2 -2 -2 -2 -2 -2 -2 -2 -1 -1 -1 -1 -1 0
-3 -3 -2 -0 0 -1 -2 -3 -3 -3 -2 -1 -1 -0 -0 -1 -1 -1 -2 -1 -1 -1 -2 -3 -2 -2 -1 -1 -1 -1 -1 -1 -1 -1 -1 -0 0 -0 -0 -0 -0 -1 -1 -0 0 0 0 1 1 1 0 0 0 0 -0 0 0 -0 -0 0 0 -0 -0 -0 -0 -0 0 0 0 0 0 0 0 -0 -1 -1 -2 -2 -3 -2 -1 -1 -0 -0 -0 -1 -1 -1 -1 -2 -2 -2 -2 -2 -2 -2 -2 -2 -1 -1 -1 -0 0
-3 -3 -2 -0 0 -1 -2 -3 -3 -3 -2 -1 -1 -0 -0 -0 -1 -2 -1 -1 -1 -0 -1 -2 -3 -2 -1 -1 -1 -1 -2 -1 -2 -2 -1 -0 0 1 0 -0 -1 -1 -1 -1 -1 -0 0 1 1 1 1 1 0 0 0 -0 -0 -0 0 0 0 0 0 0 0 0 0 0 0 -0 -0 0 0 1 0 -0 -1 -2 -3 -3 -3 -2 -1 -0 -0 -0 -0 -1 -1 -2 -2 -2 -2 -2 -3 -3 -3 -3 -2 -1 -1 -0 0
-3 -2 -2 -0 -0 -1 -2 -3 -3 -3 -2 -1 -1 -1 -0 -1 -1 -1 -1 -0 -0 0 -0 -2 -2 -2 -1 -1 -1 -1 -1 -1 -2 -1 -1 -0 1 1 1 0 -1 -1 -2 -2 -1 -1 -0 0 1 1 1 1 0 0 1 -0 -1 -1 0 0 0 1 1 1 1 1 1 0 0 -0 -1 -1 -0 0 1 1 0 -1 -2 -3 -3 -3 -2 -1 -0 0 0 -0 -1 -2 -2 -3 -3 -2 -3 -3 -3 -3 -2 -2 -1 0 1
-2 -2 -1 0 0 -0 -1 -2 -3 -3 -2 -2 -1 -1 -1 -1 -1 -0 -0 0 -0 -0 -1 -1 -1 -1 -1 -1 -0 -0 -1 -1 -1 -1 -1 0 1 1 1 -0 -1 -1 -1 -1 -1 -1 -1 -0 0 1 1 1 0 0 0 -0 -1 -1 0 0 1 1 2 1 1 1 1 1 0 0 -0 -1 -1 -1 -0 1 1 0 -0 -2 -3 -3 -3 -3 -2 -1 -0 -0 -1 -2 -3 -3 -3 -3 -3 -3 -3 -3 -2 -1 -0 0 1
-1 -1 0 1 1 -0 -1 -2 -2 -3 -3 -2 -2 -2 -1 -1 -0 0 0 0 -1 -1 -1 -1 0 0 -0 -1 -0 -0 -0 -1 -1 -0 0 0 1 1 1 -0 -1 -1 -1 -0 -0 -1 -0 -0 0 0 1 1 0 -0 -1 -1 -1 -0 0 1 1 1 1 1 1 1 1 1 1 1 0 -0 -1 -1 -1 -0 0 1 1 0 -0 -1 -2 -3 -3 -3 -2 -1 -1 -1 -2 -2 -3 -3 -3 -3 -2 -2 -1 -0 1 1 2
-0 0 1 1 0 -1 -1 -2 -2 -3 -3 -3 -2 -2 -1 -1 -0 0 0 -1 -1 -2 -2 -0 1 1 1 0 -0 -0 -1 -1 -0 0 1 1 -0 -1 -1 -0 0 0 0 0 0 0 -0 -0 0 0 1 0 -0 -1 -1 -1 -1 0 1 1 1 1 0 -0 -1 -0 0 1 1 1 1 0 -0 -0 -1 -1 -0 -0 0 0 1 1 1 -1 -2 -4 -4 -2 -1 -2 -3 -3 -3 -3 -2 -1 -0 1 2 2 2 2 2
0 0 1 0 -0 -1 -2 -2 -2 -3 -3 -3 -3 -2 -1 -1 0 0 0 -1 -2 -2 -1 -0 1 2 2 1 0 -0 -1 -1 -0 0 -0 0 0 -1 -2 -1 0 1 1 1 0 0 0 0 1 1 0 -1 -2 -2 -2 -1 0 1 1 1 1 0 -0 -1 -1 -1 0 2 2 1 0 -0 -0 -0 -0 0 -0 -0 -1 -1 0 1 2 1 -0 -3 -4 -3 -2 -3 -7 -6 -3 -0 2 3 4 4 4 3 3 2 3
-1 -1 -0 -0 -1 -2 -2 -2 -3 -3 -3 -3 -3 -2 -1 -1 -0 0 -0 -1 -1 -1 -0 0 1 2 2 2 1 -0 -1 -1 -0 0 -1 -1 -0 -0 -0 -0 0 0 1 1 0 0 1 1 1 1 -1 -1 -2 -1 -1 0 1 1 1 0 0 0 0 0 0 0 0 1 0 0 -0 -1 -1 -0 0 0 0 -0 -1 -1 -0 0 1 1 -0 -2 -6 -7 -8 -8 -9 -5 1 6 8 7 6 4 3 2 1 1 1
-1 -1 -0 -1 -1 -2 -3 -3 -3 -2 -2 -2 -2 -2 -2 -1 -1 -1 -1 -1 -1 -0 0 1 2 2 1 1 0 -1 -2 -1 -0 0 -1 -1 -1 -1 0 1 0 0 1 0 -0 0 3 1 0 -1 -2 -2 -1 0 1 2 2 1 1 0 -0 0 1 1 1 1 0 0 -0 -0 -1 -1 -1 -1 -0 -0 -1 -1 -1 -1 -1 -1 -1 -1 -3 -5 -8 -10 -10 -7 -2 4 8 9 8 5 3 2 1 1 0 0 -0
-1 -1 -0 -1 -1 -2 -3 -2 -2 -1 -1 -2 -3 -3 -3 -2 -2 -2 -2 -1 -0 1 1 2 2 2 0 -0 -1 -2 -3 -1 0 1 1 0 -0 -1 -1 1 0 -0 1 -0 -1 1 3 2 -0 -2 -2 -2 -1 -0 2 2 2 1 1 0 1 1 2 2 2 2 1 1 0 0 -1 -1 -1 -0 -0 -0 -1 -2 -2 -2 -2 -2 -2 -5 -8 -10 -11 -8 -3 2 6 7 6 5 3 2 1 1 2 1 1 0 -0
-1 -1 -0 -1 -1 -2 -2 -1 -1 -1 -2 -4 -5 -5 -4 -3 -2 -2 -2 -1 0 1 1 0 -0 -0 -1 -1 -1 -2 -2 -1 0 1 2 1 1 -0 -2 -1 -1 -1 0 -0 0 1 0 2 2 2 0 -1 -2 -2 -1 0 0 0 0 0 1 2 2 2 2 2 2 2 1 1 -1 -1 -1 -1 -0 -1 -2 -2 -3 -3 -3 -3 -5 -9 -11 -10 -5 2 6 8 8 6 5 3 1 -0 -0 0 1 2 1 1 0
-1 -1 -1 -1 -1 -1 -1 -1 -1 -1 -3 -5 -5 -5 -3 -2 -1 -1 -1 -1 -0 -0 -1 -2 -2 -2 -1 -0 0 0 -0 -1 -1 0 1 1 1 1 -0 -1 -2 -2 -2 -1 0 0 -1 0 2 3 3 2 -0 -2 -1 -1 -1 -1 -1 -1 -0 0 -0 -0 0 1 2 3 3 1 0 -0 -1 -2 -2 -3 -4 -4 -5 -5 -5 -6 -8 -11 -8 -2 4 5 7 7 7 7 6 4 1 -1 -2 -2 -1 0 0 -0 -1
-1 -1 -1 -1 -1 -1 -1 -1 -1 -2 -3 -4 -5 -4 -3 -2 -1 -1 -1 -1 -1 -1 -2 -2 -2 -1 -1 1 1 1 0 -1 -2 -2 -1 -0 1 1 1 1 -1 -2 -2 -2 -2 -1 -0 2 0 -1 -2 3 2 0 1 1 1 0 0 -0 -0 -1 -2 -2 -1 -1 1 2 1 0 0 -0 -1 -2 -3 -1 -2 -5 -7 -5 -5 -5 -8 -5 1 5 5 5 5 5 5 4 4 3 1 -1 -2 -3 -3 -2 -1 -1 -2
-1 -1 -1 -0 -1 -1 -1 -1 -1 -2 -2 -3 -4 -4 -3 -2 -2 -1 -1 -0 -1 -1 -2 -2 -2 -1 -0 0 1 1 -0 -3 -3 -3 -2 -1 1 2 1 -0 -1 -1 -1 -2 -1 -1 -2 2 1 -3 -5 0 1 0 4 3 2 2 3 2 1 1 1 0 -1 -1 -1 0 0 -0 -1 -1 1 -0 -5 -4 -4 -4 -5 -1 0 0 -1 1 2 2 2 2 3 3 3 3 2 2 1 0 -1 -2 -3 -3 -3 -3 -3
-1 -1 -0 -0 -1 -1 -1 -1 -2 -2 -2 -3 -3 -3 -3 -2 -2 -1 -1 -1 -1 -1 -1 -2 -1 -1 -0 0 -0 -1 -2 -4 -4 -4 -2 -0 1 1 0 -2 -2 -1 -1 -0 0 0 -2 0 -1 -2 -2 -5 -4 -1 5 2 2 2 3 2 3 3 3 3 2 1 0 0 0 -0 -1 -3 -4 -6 -11 -10 -6 -1 3 4 4 2 -0 -2 -3 -2 -1 0 1 2 2 1 1 1 1 1 1 -0 -2 -3 -4 -5 -4
-1 -1 -0 -0 -0 -1 -1 -1 -2 -2 -3 -3 -2 -2 -2 -2 -2 -2 -1 -1 -1 -1 -1 -2 -1 -1 0 0 -0 -2 -3 -5 -5 -4 -2 -1 0 0 -0 -1 -1 -1 -1 -1 -0 -0 -0 -1 -2 -2 0 -5 -6 -4 -0 0 2 3 2 2 2 3 3 3 3 2 0 0 -0 -1 -3 -5 -6 -7 -8 -5 -1 2 3 2 2 2 0 -2 -3 -3 -3 -1 -1 -0 -0 -0 -1 -0 0 1 2 1 0 -1 -3 -4 -5
-1 -0 -0 -0 -0 -1 -1 -1 -2 -2 -2 -2 -2 -2 -2 -2 -2 -2 -1 -1 -1 -1 -2 -2 -1 -0 1 1 -0 -2 -4 -5 -5 -4 -2 -2 -1 -1 0 -0 -0 0 -1 -2 -2 -1 -1 -2 -2 -2 -2 -3 -3 -3 -6 -4 -1 2 1 1 1 2 2 3 2 1 0 -1 -3 -4 -5 -5 -4 -3 -3 1 3 4 2 0 -1 -1 -1 -2 -3 -3 -2 -2 -2 -2 -1 -1 -0 -0 -0 1 1 2 2 0 -1 -3 -4
-0 -0 -0 -0 -0 -1 -1 -2 -2 -2 -2 -2 -2 -2 -2 -2 -2 -1 -0 -1 -1 -1 -2 -2 -1 -0 1 0 -1 -2 -4 -4 -4 -4 -2 -3 -3 -2 -0 0 1 1 0 -1 -1 -1 -2 -3 -3 -2 -3 -2 -0 0 -2 -3 -4 -4 -5 -1 0 1 1 2 1 -1 -3 -5 -6 -5 -3 1 2 1 -1 -0 1 2 2 0 -1 -2 -3 -3 -3 -3 -2 -2 -2 -2 -1 -1 -0 -0 -0 0 0 1 1 1 -0 -2 -3
Height
5863 5864 5865 5866 5866 5867 5868 5869 5869 5870 5871 5871 5872 5872 5873 5873 5874 5875 5876 5877 5877 5878 5878 5879 5879 5879 5880 5880 5881 5881 5882 5882 5882 5882 5882 5882 5883 5883 5883 5883 5884 5884 5884 5885 5885 5885 5885 5886 5886 5886 5887 5887 5887 5887 5888 5888 5888 5888 5888 5888 5888 5888 5888 5889 5889 5889 5889 5889 5889 5889 5889 5889 5889 5890 5890 5890 5890 5890 5890 5890 5890 5890 5891 5891 5891 5891 5891 5891 5891 5891 5891 5891 5891 5891 5891 5891 5891 5891 5891 5891 5890 5890 5890
5862 5863 5863 5864 5865 5866 5867 5868 5868 5869 5870 5870 5871 5871 5872 5873 5873 5874 5875 5876 5876 5877 5878 5878 5878 5879 5879 5879 5880 5880 5881 5881 5881 5881 5882 5882 5882 5882 5883 5883 5883 5883 5884 5884 5884 5885 5885 5885 5885 5886 5886 5886 5887 5887 5887 5887 5888 5888 5888 5888 5888 5888 5888 5888 5888 5888 5889 5889 5889 5889 5889 5889 5889 5889 5889 5889 5889 5890 5890 5890 5890 5890 5890 5890 5890 5890 5890 5890 5890 5891 5891 5891 5891 5891 5891 5891 5890 5890 5890 5890 5890 5890 5890
5861 5861 5862 5863 5863 5864 5865 5866 5867 5868 5869 5869 5870 5870 5871 5871 5872 5873 5874 5875 5875 5876 5877 5877 5878 5878 5878 5879 5879 5880 5880 5880 5880 5881 5881 5881 5881 5882 5882 5882 5883 5883 5883 5883 5883 5884 5884 5884 5885 5885 5885 5886 5886 5886 5886 5886 5887 5887 5887 5888 5888 5888 5888 5888 5888 5888 5888 5888 5888 5888 5889 5889 5889 5889 5889 5889 5889 5889 5889 5889 5889 5889 5889 5890 5890 5890 5890 5890 5890 5890 5890 5890 5890 5890 5890 5890 5890 5890 5890 5890 5889 5889 5889
5859 5860 5861 5862 5862 5863 5864 5865 5866 5867 5867 5868 5869 5869 5870 5870 5871 5872 5873 5873 5874 5875 5876 5876 5877 5877 5877 5878 5878 5879 5879 5879 5880 5880 5880 5880 5881 5881 5881 5882 5882 5882 5883 5883 5883 5883 5883 5884 5884 5884 5885 5885 5885 5886 5886 5886 5886 5886 5887 5887 5887 5887 5887 5888 5888 5888 5888 5888 5888 5888 5888 5888 5888 5888 5888 5888 5888 5889 5888 5889 5889 5889 5889 5889 5889 5889 5889 5889 5890 5890 5890 5890 5890 5889 5889 5889 5889 5889 5889 5889 5889 5889 5888
5858 5858 5859 5860 5861 5862 5862 5863 5864 5865 5866 5867 5868 5868 5869 5869 5870 5870 5871 5872 5873 5874 5874 5875 5876 5876 5876 5877 5877 5878 5878 5879 5879 5879 5879 5879 5880 5880 5880 5881 5881 5881 5882 5882 5882 5883 5883 5883 5883 5884 5884 5884 5885 5885 5885 5885 5885 5886 5886 5886 5886 5887 5887 5887 5887 5887 5888 5888 5888 5888 5888 5888 5888 5888 5888 5888 5888 5888 5888 5888 5888 5888 5889 5889 5889 5889 5889 5889 5889 5889 5889 5889 5889 5889 5889 5889 5889 5889 5888 5888 5888 5888 5888
5856 5857 5858 5859 5859 5860 5861 5862 5863 5863 5864 5865 5866 5867 5868 5868 5869 5869 5870 5871 5872 5873 5873 5874 5874 5875 5875 5876 5876 5877 5877 5878 5878 5878 5878 5879 5879 5879 5879 5880 5880 5881 5881 5881 5881 5882 5882 5882 5883 5883 5883 5883 5884 5884 5884 5885 5885 5885 5885 5886 5886 5886 5886 5887 5887 5887 5887 5887 5887 5887 5888 5888 5888 5888 5888 5888 5888 5888 5888 5888 5888 5888 5888 5888 5888 5888 5888 5888 5888 5889 5889 5888 5888 5888 5888 5888 5888 5888 5888 5888 5888 5888 5887
5855 5856 5857 5858 5858 5859 5859 5860 5861 5862 5863 5864 5865 5865 5866 5867 5868 5868 5869 5870 5870 5871 5872 5873 5873 5874 5874 5875 5875 5876 5876 5877 5877 5878 5878 5878 5878 5878 5879 5879 5879 5880 5880 5880 5881 5881 5881 5882 5882 5882 5883 5883 5883 5883 5884 5884 5884 5884 5884 5885 5885 5885 5886 5886 5886 5886 5886 5887 5887 5887 5887 5887 5887 5887 5888 5888 5888 5888 5888 5888 5888 5888 5888 5888 5888 5888 5888 5888 5888 5888 5888 5888 5888 5888 5888 5888 5888 5888 5888 5887 5887 5887 5887
5853 5854 5855 5856 5857 5858 5858 5859 5860 5861 5862 5863 5863 5864 5865 5866 5866 5867 5868 5868 5869 5870 5871 5872 5872 5873 5873 5874 5874 5875 5875 5876 5876 5877 5877 5877 5878 5878 5878 5878 5878 5879 5879 5880 5880 5880 5880 5881 5881 5881 5882 5882 5882 5883 5883 5883 5883 5884 5884 5884 5884 5885 5885 5885 5885 5886 5886 5886 5886 5886 5887 5887 5887 5887 5887 5887 5887 5887 5887 5887 5887 5888 5888 5888 5888 5888 5888 5888 5888 5888 5888 5888 5888 5888 5887 5887 5887 5887 5887 5887 5886 5886 5886
5852 5853 5854 5855 5856 5856 5857 5858 5858 5859 5860 5861 5862 5863 5863 5864 5865 5866 5866 5867 5868 5869 5870 5870 5871 5872 5872 5873 5873 5874 5874 5875 5875 5876 5876 5876 5877 5877 5877 5878 5878 5878 5878 5879 5879 5879 5880 5880 5880 5880 5881 5881 5882 5882 5882 5883 5883 5883 5883 5883 5883 5884 5884 5884 5885 5885 5885 5885 5885 5886 5886 5886 5886 5886 5886 5887 5887 5887 5887 5887 5887 5887 5887 5887 5887 5887 5887 5887 5887 5887 5887 5887 5887 5887 5887 5887 5886 5886 5886 5886 5886 5885 5885
5850 5852 5853 5853 5854 5855 5856 5856 5857 5858 5858 5859 5860 5861 5862 5863 5863 5864 5865 5866 5867 5868 5868 5869 5870 5870 5871 5872 5872 5873 5873 5874 5874 5875 5875 5875 5876 5876 5876 5877 5877 5878 5878 5878 5878 5879 5879 5879 5879 5880 5880 5880 5881 5881 5881 5882 5882 5882 5883 5883 5883 5883 5883 5883 5884 5884 5884 5884 5885 5885 5885 5885 5885 5886 5886 5886 5886 5886 5886 5886 5886 5887 5887 5887 5887 5887 5887 5887 5887 5887 5887 5887 5886 5886 5886 5886 5886 5886 5885 5885 5885 5885 5885
5849 5850 5851 5852 5853 5853 5854 5855 5855 5856 5857 5858 5858 5859 5860 5861 5862 5863 5864 5864 5865 5866 5867 5868 5869 5869 5870 5870 5871 5872 5872 5873 5873 5874 5874 5875 5875 5875 5876 5876 5876 5877 5877 5877 5878 5878 5878 5878 5878 5879 5879 5879 5880 5880 5880 5881 5881 5881 5882 5882 5882 5882 5882 5883 5883 5883 5883 5883 5884 5884 5884 5884 5885 5885 5885 5885 5885 5886 5886 5886 5886 5886 5886 5886 5886 5886 5886 5886 5886 5886 5886 5886 5886 5886 5885 5885 5885 5885 5885 5884 5884 5884 5884
5847 5848 5849 5850 5851 5852 5853 5853 5854 5855 5856 5856 5857 5858 5859 5860 5861 5862 5862 5863 5864 5865 5866 5867 5868 5868 5869 5869 5870 5870 5871 5872 5872 5873 5873 5874 5874 5874 5875 5875 5876 5876 5876 5877 5877 5877 5878 5878 5878 5878 5878 5878 5879 5879 5879 5880 5880 5881 5881 5881 5881 5881 5882 5882 5882 5882 5883 5883 5883 5883 5883 5883 5884 5884 5884 5884 5884 5885 5885 5885 5885 5885 5885 5885 5885 5885 5885 5885 5885 5885 5885 5885 5885 5885 5885 5884 5884 5884 5884 5884 5883 5883 5883
5845 5846 5847 5848 5849 5850 5851 5852 5853 5853 5854 5855 5856 5857 5857 5858 5859 5860 5861 5862 5863 5863 5864 5865 5866 5867 5868 5868 5869 5869 5870 5870 5871 5872 5872 5873 5873 5874 5874 5874 5875 5875 5875 5876 5876 5876 5877 5877 5877 5878 5878 5878 5878 5878 5879 5879 5879 5880 5880 5880 5880 5881 5881 5881 5881 5881 5882 5882 5882 5882 5882 5883 5883 5883 5883 5883 5883 5884 5884 5884 5884 5884 5884 5884 5884 5884 5884 5884 5884 5884 5884 5884 5884 5884 5884 5884 5883 5883 5883 5883 5883 5883 5882
5843 5844 5845 5847 5848 5849 5850 5850 5851 5852 5853 5853 5854 5855 5856 5857 5858 5858 5859 5860 5861 5862 5863 5864 5864 5865 5866 5867 5868 5868 5868 5869 5870 5870 5871 5872 5872 5873 5873 5873 5874 5874 5874 5875 5875 5876 5876 5876 5876 5877 5877 5877 5877 5878 5878 5878 5878 5879 5879 5879 5879 5880 5880 5880 5880 5880 5881 5881 5881 5881 5881 5882 5882 5882 5882 5882 5883 5883 5883 5883 5883 5883 5883 5883 5883 5883 5883 5883 5883 5883 5883 5883 5883 5883 5883 5883 5883 5883 5882 5882 5882 5882 5881
5841 5842 5843 5844 5846 5847 5848 5849 5850 5851 5851 5852 5853 5853 5854 5855 5856 5857 5858 5859 5859 5860 5861 5862 5863 5864 5865 5866 5866 5867 5868 5868 5869 5869 5870 5871 5871 5872 5872 5873 5873 5873 5873 5874 5874 5875 5875 5875 5876 5876 5876 5876 5877 5877 5877 5877 5878 5878 5878 5878 5878 5879 5879 5879 5879 5880 5880 5880 5880 5880 5880 5881 5881 5881 5881 5881 5882 5882 5882 5882 5882 5882 5882 5883 5883 5883 5883 5883 5883 5883 5882 5882 5882 5882 5882 5882 5882 5882 5881 5881 5881 5881 5880
5839 5840 5841 5842 5843 5845 5846 5847 5848 5849 5850 5851 5852 5852 5853 5854 5855 5855 5856 5857 5858 5859 5859 5860 5861 5862 5863 5864 5865 5866 5866 5867 5868 5868 5869 5869 5870 5871 5871 5872 5872 5872 5873 5873 5873 5873 5874 5874 5874 5875 5875 5875 5876 5876 5876 5876 5877 5877 5877 5877 5878 5878 5878 5878 5878 5878 5879 5879 5879 5879 5879 5879 5880 5880 5880 5880 5880 5880 5881 5881 5881 5881 5881 5881 5881 5881 5881 5881 5881 5881 5881 5881 5881 5881 5881 5881 5881 5880 5880 5880 5880 5880 5879
5837 5838 5839 5840 5841 5843 5844 5845 5846 5847 5848 5849 5850 5851 5852 5853 5853 5854 5855 5855 5856 5857 5858 5859 5860 5861 5862 5863 5863 5864 5865 5866 5866 5867 5868 5868 5869 5869 5870 5870 5871 5871 5872 5872 5872 5873 5873 5873 5873 5874 5874 5874 5875 5875 5875 5875 5876 5876 5876 5876 5877 5877 5877 5877 5878 5878 5878 5878 5878 5878 5878 5878 5878 5879 5879 5879 5879 5879 5879 5879 5880 5880 5880 5880 5880 5880 5880 5880 5880 5880 5880 5880 5880 5880 5879 5879 5879 5879 5879 5879 5879 5878 5878
5835 5836 5837 5838 5839 5840 5842 5843 5844 5845 5847 5848 5849 5850 5850 5851 5852 5853 5853 5854 5854 5855 5856 5857 5858 5859 5860 5861 5862 5863 5863 5864 5865 5866 5866 5867 5868 5868 5869 5869 5870 5870 5871 5871 5871 5872 5872 5872 5872 5873 5873 5873 5873 5874 5874 5874 5875 5875 5875 5875 5876 5876 5876 5876 5876 5877 5877 5877 5877 5877 5877 5877 5878 5878 5878 5878 5878 5878 5878 5878 5878 5878 5878 5878 5878 5879 5879 5879 5879 5879 5879 5878 5878 5878 5878 5878 5878 5878 5878 5878 5878 5877 5877
5833 5834 5835 5836 5837 5838 5839 5841 5842 5843 5845 5846 5847 5848 5849 5849 5850 5852 5853 5852 5853 5854 5855 5856 5857 5858 5858 5859 5860 5861 5862 5863 5864 5864 5865 5866 5866 5867 5868 5868 5868 5869 5869 5870 5870 5870 5871 5871 5871 5871 5872 5872 5872 5873 5873 5873 5873 5874 5874 5874 5874 5874 5875 5875 5875 5875 5876 5876 5876 5876 5876 5876 5876 5876 5877 5877 5877 5877 5877 5877 5877 5877 5877 5877 5877 5877 5877 5877 5877 5877 5877 5877 5877 5877 5877 5877 5877 5877 5876 5876 5876 5876 5876
5831 5832 5833 5834 5835 5836 5838 5839 5840 5841 5843 5844 5845 5846 5847 5848 5849 5850 5851 5851 5851 5852 5853 5854 5855 5856 5857 5858 5859 5860 5860 5861 5862 5863 5864 5864 5865 5866 5866 5867 5867 5868 5868 5868 5869 5869 5869 5870 5870 5870 5870 5871 5871 5871 5872 5872 5872 5873 5873 5873 5873 5873 5873 5874 5874 5874 5874 5874 5875 5875 5875 5875 5875 5875 5875 5875 5875 5875 5876 5876 5876 5876 5876 5876 5876 5876 5876 5876 5876 5876 5876 5876 5876 5876 5875 5875 5875 5875 5875 5875 5875 5874 5874
5829 5830 5831 5832 5833 5834 5835 5837 5838 5839 5841 5842 5843 5844 5845 5846 5847 5848 5848 5849 5850 5851 5852 5853 5854 5854 5855 5856 5857 5858 5859 5860 5860 5861 5862 5863 5863 5864 5865 5865 5866 5866 5867 5867 5867 5868 5868 5868 5869 5869 5869 5869 5870 5870 5870 5871 5871 5871 5871 5872 5872 5872 5872 5872 5873 5873 5873 5873 5873 5873 5873 5874 5874 5874 5874 5874 5874 5874 5874 5874 5874 5874 5874 5874 5874 5874 5874 5874 5874 5874 5874 5874 5874 5874 5874 5874 5874 5874 5873 5873 5873 5873 5873
5826 5828 5829 5830 5832 5833 5834 5835 5836 5838 5839 5840 5841 5842 5843 5844 5845 5846 5847 5848 5848 5849 5850 5851 5852 5853 5854 5855 5856 5856 5857 5858 5859 5859 5860 5861 5862 5863 5863 5863 5864 5864 5865 5865 5866 5866 5867 5867 5867 5868 5868 5868 5868 5868 5869 5869 5869 5870 5870 5870 5870 5871 5871 5871 5871 5871 5872 5872 5872 5872 5872 5872 5872 5872 5873 5873 5873 5873 5873 5873 5873 5873 5873 5873 5873 5873 5873 5873 5873 5873 5873 5873 5873 5873 5873 5873 5873 5872 5872 5872 5872 5872 5872
5824 5825 5827 5828 5829 5831 5832 5833 5834 5836 5837 5838 5839 5840 5841 5843 5843 5844 5845 5846 5847 5848 5848 5849 5850 5851 5852 5853 5854 5855 5855 5856 5857 5858 5858 5859 5860 5861 5861 5862 5863 5863 5863 5864 5864 5865 5865 5866 5866 5866 5866 5867 5867 5867 5867 5868 5868 5868 5868 5869 5869 5869 5869 5870 5870 5870 5870 5870 5870 5871 5871 5871 5871 5871 5871 5871 5871 5871 5871 5871 5871 5871 5871 5871 5871 5871 5871 5871 5871 5871 5871 5871 5871 5871 5871 5871 5871 5871 5871 5870 5870 5870 5870
5821 5823 5824 5826 5827 5828 5830 5831 5832 5833 5835 5836 5837 5838 5839 5841 5842 5843 5843 5844 5845 5846 5847 5848 5849 5850 5851 5851 5852 5853 5854 5854 5855 5856 5857 5858 5858 5859 5860 5860 5861 5861 5862 5863 5863 5863 5864 5864 5864 5865 5865 5865 5865 5866 5866 5866 5866 5867 5867 5867 5867 5868 5868 5868 5868 5868 5869 5869 5869 5869 5869 5869 5869 5869 5869 5870 5870 5870 5870 5870 5870 5870 5870 5870 5870 5870 5870 5870 5870 5870 5870 5870 5870 5870 5870 5869 5869 5869 5869 5869 5869 5868 5868
5819 5820 5822 5823 5825 5827 5828 5829 5830 5832 5833 5834 5835 5836 5838 5839 5840 5841 5842 5843 5844 5845 5845 5846 5847 5848 5849 5850 5850 5851 5852 5853 5853 5854 5855 5856 5856 5857 5858 5858 5859 5860 5860 5861 5861 5862 5862 5863 5863 5863 5863 5864 5864 5864 5864 5865 5865 5865 5865 5866 5866 5866 5866 5867 5867 5867 5867 5868 5868 5868 5868 5868 5868 5868 5868 5868 5868 5868 5868 5868 5868 5868 5868 5868 5868 5868 5868 5868 5868 5868 5868 5868 5868 5868 5868 5868 5868 5868 5868 5868 5867 5867 5867
5817 5818 5820 5821 5823 5824 5826 5827 5828 5829 5831 5832 5833 5834 5836 5837 5838 5839 5840 5841 5842 5843 5844 5845 5845 5846 5847 5848 5848 5849 5850 5851 5852 5853 5853 5854 5854 5855 5856 5856 5857 5858 5858 5859 5859 5860 5860 5861 5861 5862 5862 5862 5863 5863 5863 5863 5864 5864 5864 5864 5864 5865 5865 5865 5865 5866 5866 5866 5866 5866 5866 5866 5866 5866 5866 5866 5866 5866 5867 5867 5867 5867 5867 5867 5867 5867 5867 5867 5867 5867 5867 5867 5867 5867 5867 5866 5866 5866 5866 5866 5866 5865 5865
5814 5815 5817 5819 5821 5822 5824 5825 5826 5828 5829 5830 5831 5833 5834 5836 5837 5838 5838 5839 5840 5841 5842 5843 5843 5844 5845 5846 5847 5848 5848 5849 5850 5851 5851 5852 5852 5853 5853 5854 5855 5856 5856 5857 5858 5858 5859 5859 5860 5860 5860 5861 5861 5861 5861 5862 5862 5862 5863 5863 5863 5863 5863 5863 5864 5864 5864 5864 5864 5864 5865 5865 5865 5865 5865 5865 5865 5865 5865 5865 5865 5865 5865 5865 5865 5865 5865 5865 5865 5865 5865 5865 5865 5865 5865 5865 5865 5865 5864 5864 5864 5864 5864
5811 5813 5815 5817 5818 5820 5822 5823 5824 5826 5827 5828 5830 5831 5832 5834 5835 5835 5836 5837 5838 5839 5840 5841 5842 5843 5843 5844 5844 5845 5846 5847 5848 5848 5849 5850 5850 5851 5851 5852 5853 5853 5854 5855 5856 5856 5857 5857 5858 5858 5858 5859 5859 5859 5859 5860 5860 5861 5861 5861 5861 5861 5862 5862 5862 5862 5862 5863 5863 5863 5863 5863 5863 5863 5863 5863 5863 5863 5863 5863 5863 5863 5863 5863 5863 5863 5863 5863 5863 5863 5863 5863 5863 5863 5863 5863 5863 5863 5863 5863 5863 5862 5862
5808 5810 5813 5814 5816 5818 5820 5821 5823 5824 5825 5827 5828 5829 5830 5831 5833 5833 5834 5835 5836 5837 5838 5839 5840 5841 5842 5842 5843 5843 5844 5845 5846 5847 5847 5848 5848 5848 5849 5850 5851 5851 5852 5853 5853 5854 5854 5855 5856 5856 5856 5857 5857 5857 5858 5858 5858 5858 5859 5859 5859 5859 5860 5860 5860 5860 5860 5861 5861 5861 5861 5861 5861 5861 5861 5861 5861 5861 5861 5861 5861 5862 5862 5862 5862 5862 5862 5862 5862 5862 5862 5862 5862 5862 5861 5861 5861 5861 5861 5861 5861 5861 5860
5806 5809 5811 5813 5815 5817 5818 5819 5821 5822 5823 5825 5826 5827 5828 5829 5830 5831 5832 5833 5834 5835 5836 5837 5838 5838 5839 5840 5841 5842 5843 5843 5844 5844 5846 5846 5846 5846 5847 5848 5848 5849 5850 5850 5851 5852 5852 5853 5853 5853 5854 5854 5855 5855 5855 5855 5856 5856 5857 5857 5858 5858 5858 5858 5858 5858 5858 5858 5858 5858 5859 5859 5859 5859 5859 5859 5859 5859 5859 5859 5859 5860 5860 5860 5860 5860 5860 5860 5860 5860 5860 5860 5860 5860 5859 5859 5859 5859 5859 5859 5859 5859 5859
5805 5807 5810 5812 5813 5814 5816 5817 5818 5820 5821 5822 5823 5825 5826 5827 5828 5829 5830 5832 5833 5833 5834 5835 5836 5837 5837 5838 5839 5840 5840 5841 5842 5843 5844 5844 5844 5844 5845 5846 5846 5847 5847 5848 5848 5849 5849 5850 5851 5851 5852 5852 5853 5853 5853 5853 5853 5854 5854 5855 5855 5856 5856 5856 5856 5856 5856 5856 5857 5857 5857 5857 5857 5857 5857 5857 5857 5857 5857 5858 5858 5858 5858 5858 5858 5858 5858 5858 5858 5858 5858 5858 5858 5858 5858 5858 5858 5858 5858 5857 5857 5857 5857
5803 5806 5808 5811 5812 5812 5813 5815 5816 5818 5819 5820 5822 5823 5824 5825 5826 5827 5828 5829 5830 5831 5832 5833 5834 5835 5835 5836 5837 5838 5838 5839 5839 5840 5840 5841 5842 5842 5843 5843 5844 5844 5845 5846 5846 5847 5847 5848 5848 5848 5849 5850 5850 5850 5851 5851 5851 5851 5852 5852 5853 5853 5854 5854 5854 5854 5854 5854 5854 5854 5854 5855 5855 5855 5855 5855 5855 5855 5855 5855 5856 5856 5856 5856 5856 5856 5856 5856 5856 5856 5856 5856 5856 5856 5856 5856 5856 5856 5856 5855 5855 5855 5855
5803 5805 5807 5810 5810 5810 5811 5813 5814 5816 5817 5818 5820 5821 5822 5823 5824 5825 5826 5827 5828 5829 5830 5831 5832 5833 5833 5834 5834 5835 5836 5837 5837 5838 5838 5838 5839 5840 5841 5841 5842 5842 5843 5843 5844 5844 5845 5845 5846 5846 5847 5847 5848 5848 5848 5848 5849 5849 5849 5849 5850 5851 5851 5852 5852 5852 5852 5852 5852 5852 5852 5853 5853 5853 5853 5853 5853 5853 5853 5853 5853 5853 5854 5854 5854 5854 5854 5854 5854 5854 5854 5854 5854 5854 5854 5853 5853 5853 5853 5853 5853 5853 5853
5801 5803 5806 5808 5808 5808 5810 5812 5813 5814 5816 5817 5818 5819 5820 5821 5822 5823 5824 5825 5826 5827 5828 5829 5829 5830 5831 5832 5833 5833 5834 5834 5835 5836 5836 5836 5837 5837 5838 5839 5839 5840 5841 5841 5842 5842 5843 5843 5843 5844 5844 5845 5845 5845 5846 5846 5846 5847 5847 5847 5847 5848 5848 5849 5849 5849 5850 5850 5850 5850 5850 5850 5850 5851 5851 5851 5851 5851 5851 5851 5851 5851 5851 5851 5851 5852 5852 5852 5852 5852 5852 5852 5851 5851 5851 5851 5851 5851 5851 5851 5851 5851 5851
5800 5802 5804 5806 5807 5808 5809 5810 5812 5813 5815 5816 5817 5817 5818 5819 5820 5821 5822 5823 5824 5825 5826 5827 5827 5828 5829 5829 5830 5831 5832 5832 5833 5834 5834 5834 5835 5835 5835 5836 5837 5838 5839 5839 5840 5840 5841 5841 5841 5842 5842 5843 5843 5843 5844 5844 5844 5844 5844 5844 5845 5845 5845 5846 5846 5847 5847 5848 5848 5848 5848 5848 5848 5848 5848 5848 5849 5849 5849 5849 5849 5849 5849 5849 5849 5849 5849 5849 5849 5850 5849 5849 5849 5849 5849 5849 5849 5849 5849 5849 5848 5848 5848
5799 5801 5803 5804 5806 5807 5808 5809 5810 5812 5813 5814 5815 5816 5817 5817 5818 5819 5820 5821 5822 5823 5824 5824 5825 5826 5827 5828 5828 5829 5829 5830 5831 5832 5832 5833 5833 5833 5833 5834 5835 5836 5837 5837 5838 5838 5839 5839 5839 5840 5840 5841 5841 5841 5842 5842 5842 5842 5842 5842 5842 5843 5843 5843 5843 5844 5844 5845 5845 5845 5846 5846 5846 5846 5846 5846 5846 5847 5847 5847 5847 5847 5847 5847 5847 5847 5847 5847 5847 5847 5847 5847 5847 5847 5847 5847 5846 5846 5846 5846 5846 5846 5846
5798 5800 5801 5803 5804 5805 5806 5807 5809 5810 5811 5813 5813 5814 5815 5815 5816 5818 5818 5819 5820 5821 5822 5823 5823 5824 5825 5826 5827 5827 5828 5828 5829 5830 5830 5831 5831 5832 5832 5833 5833 5834 5835 5835 5836 5837 5837 5837 5837 5838 5838 5838 5839 5839 5839 5839 5839 5840 5840 5840 5840 5840 5840 5840 5841 5841 5841 5842 5842 5843 5843 5843 5843 5844 5844 5844 5844 5844 5844 5844 5844 5844 5844 5844 5844 5844 5844 5844 5844 5844 5844 5844 5844 5844 5844 5844 5844 5844 5843 5843 5843 5843 5843
5797 5798 5800 5801 5803 5803 5804 5806 5807 5808 5809 5810 5812 5813 5813 5814 5815 5816 5817 5818 5819 5819 5820 5821 5821 5822 5823 5824 5825 5825 5826 5826 5827 5828 5828 5829 5829 5830 5830 5831 5831 5832 5832 5833 5834 5834 5835 5835 5835 5836 5836 5837 5837 5837 5838 5838 5838 5838 5838 5838 5838 5838 5838 5838 5838 5838 5839 5839 5840 5840 5841 5841 5841 5841 5841 5841 5842 5842 5842 5842 5842 5842 5841 5841 5841 5841 5841 5841 5841 5841 5841 5841 5841 5841 5841 5841 5841 5841 5841 5841 5841 5840 5840
5795 5797 5798 5799 5801 5802 5803 5803 5804 5806 5807 5808 5809 5811 5812 5812 5813 5814 5815 5816 5817 5818 5818 5819 5820 5820 5821 5822 5823 5823 5824 5824 5825 5826 5826 5827 5828 5828 5828 5829 5829 5830 5830 5831 5832 5832 5833 5833 5833 5833 5834 5834 5835 5835 5835 5836 5836 5836 5836 5836 5836 5836 5836 5836 5836 5836 5836 5836 5837 5838 5838 5838 5838 5838 5838 5838 5839 5839 5839 5839 5839 5839 5839 5839 5839 5839 5838 5838 5838 5838 5838 5838 5838 5838 5838 5838 5838 5838 5838 5838 5838 5838 5838
5793 5795 5796 5797 5798 5800 5801 5801 5802 5803 5804 5806 5807 5808 5810 5811 5812 5812 5813 5814 5815 5816 5816 5817 5818 5818 5819 5820 5821 5821 5822 5822 5823 5823 5824 5825 5826 5826 5827 5827 5828 5828 5828 5829 5829 5830 5831 5831 5831 5832 5832 5832 5833 5833 5833 5833 5833 5834 5834 5834 5834 5834 5834 5834 5834 5834 5834 5834 5834 5835 5835 5835 5835 5835 5835 5836 5836 5836 5836 5836 5836 5836 5836 5836 5836 5836 5836 5836 5836 5836 5835 5835 5836 5836 5836 5836 5836 5835 5835 5835 5835 5835 5835
5791 5792 5793 5795 5796 5797 5798 5799 5800 5801 5802 5803 5805 5806 5807 5808 5809 5810 5811 5812 5813 5813 5814 5815 5816 5817 5818 5818 5819 5819 5820 5820 5821 5822 5822 5823 5823 5824 5824 5825 5825 5826 5827 5827 5828 5828 5828 5829 5829 5829 5830 5830 5830 5830 5831 5831 5831 5832 5832 5832 5832 5832 5832 5832 5832 5832 5832 5832 5832 5832 5832 5832 5832 5832 5833 5833 5833 5833 5833 5833 5833 5833 5833 5833 5833 5833 5833 5833 5833 5833 5833 5833 5833 5833 5833 5833 5833 5833 5833 5832 5832 5832 5832
5788 5790 5791 5793 5794 5795 5796 5797 5798 5799 5800 5801 5803 5804 5805 5806 5807 5808 5809 5810 5811 5811 5812 5813 5814 5815 5815 5816 5817 5817 5818 5818 5819 5820 5820 5821 5821 5822 5822 5823 5823 5824 5824 5825 5825 5826 5826 5827 5827 5827 5828 5828 5828 5828 5828 5829 5829 5829 5829 5829 5829 5830 5830 5830 5830 5830 5830 5830 5830 5830 5830 5830 5830 5830 5830 5830 5830 5830 5831 5831 5831 5831 5831 5831 5831 5831 5831 5830 5830 5830 5830 5830 5830 5830 5830 5830 5830 5830 5830 5829 5829 5829 5829
5786 5788 5789 5790 5792 5793 5793 5794 5795 5797 5798 5799 5800 5801 5803 5803 5805 5806 5807 5808 5808 5809 5810 5811 5812 5813 5813 5814 5815 5815 5816 5816 5817 5818 5818 5819 5819 5820 5820 5821 5821 5822 5822 5823 5823 5823 5824 5824 5825 5825 5825 5826 5826 5826 5826 5827 5827 5827 5827 5827 5827 5827 5828 5828 5828 5828 5828 5828 5828 5828 5828 5828 5828 5827 5827 5828 5828 5828 5828 5828 5828 5828 5828 5828 5828 5828 5828 5828 5828 5828 5828 5828 5828 5828 5828 5827 5827 5827 5827 5827 5827 5827 5828
5784 5785 5787 5788 5789 5790 5791 5792 5793 5794 5795 5797 5798 5799 5800 5801 5802 5803 5804 5805 5806 5807 5808 5808 5809 5810 5811 5812 5813 5813 5814 5814 5815 5815 5816 5817 5817 5818 5818 5818 5819 5819 5820 5820 5821 5821 5822 5822 5823 5823 5823 5823 5824 5824 5824 5824 5824 5825 5825 5825 5825 5825 5825 5825 5825 5826 5826 5826 5826 5826 5826 5826 5825 5825 5825 5825 5825 5825 5825 5825 5825 5825 5825 5825 5825 5825 5825 5825 5825 5825 5825 5825 5825 5825 5825 5825 5825 5825 5825 5825 5825 5825 5825
5782 5783 5785 5786 5787 5788 5788 5789 5791 5792 5793 5794 5796 5797 5798 5799 5800 5801 5802 5803 5804 5805 5806 5806 5807 5808 5808 5809 5810 5811 5812 5812 5813 5813 5814 5814 5815 5816 5816 5816 5817 5817 5818 5818 5818 5819 5819 5820 5820 5821 5821 5821 5821 5822 5822 5822 5822 5822 5823 5823 5823 5823 5823 5823 5823 5823 5823 5823 5823 5823 5823 5823 5823 5823 5823 5823 5823 5822 5822 5822 5822 5822 5822 5822 5823 5823 5823 5823 5823 5823 5823 5823 5823 5823 5823 5823 5822 5822 5822 5822 5822 5822 5822
5780 5782 5783 5784 5785 5786 5786 5787 5788 5790 5791 5792 5793 5795 5796 5797 5798 5798 5800 5801 5802 5803 5803 5804 5805 5806 5806 5807 5808 5808 5809 5809 5810 5811 5812 5812 5813 5813 5814 5814 5814 5815 5815 5815 5816 5816 5817 5817 5818 5818 5818 5819 5819 5819 5819 5819 5819 5819 5820 5820 5820 5820 5821 5821 5821 5821 5821 5821 5821 5821 5821 5821 5821 5821 5821 5821 5820 5820 5820 5819 5819 5819 5819 5819 5820 5820 5820 5820 5820 5820 5820 5820 5820 5820 5820 5820 5820 5820 5820 5819 5819 5819 5819
5778 5779 5781 5782 5783 5783 5784 5785 5786 5788 5789 5790 5791 5793 5793 5794 5796 5797 5798 5798 5799 5800 5801 5802 5803 5803 5804 5804 5805 5806 5806 5807 5808 5808 5809 5810 5811 5811 5812 5812 5812 5812 5813 5813 5813 5814 5814 5815 5815 5815 5816 5816 5816 5816 5816 5816 5817 5817 5817 5817 5818 5818 5818 5818 5818 5818 5818 5818 5818 5818 5818 5818 5818 5818 5818 5818 5818 5818 5818 5817 5817 5817 5817 5817 5817 5817 5817 5817 5817 5817 5817 5818 5818 5818 5818 5818 5818 5818 5817 5817 5817 5817 5817
5776 5778 5778 5779 5780 5781 5782 5783 5784 5786 5787 5788 5789 5790 5792 5793 5793 5794 5795 5796 5797 5798 5799 5800 5801 5801 5802 5802 5803 5803 5804 5804 5805 5806 5807 5808 5808 5808 5809 5809 5810 5810 5810 5811 5811 5812 5812 5812 5813 5813 5813 5813 5813 5813 5813 5813 5814 5814 5814 5815 5815 5815 5815 5815 5815 5815 5815 5815 5815 5815 5815 5815 5815 5815 5815 5815 5815 5815 5815 5815 5815 5815 5814 5814 5814 5814 5814 5814 5814 5814 5814 5814 5815 5815 5815 5815 5815 5815 5815 5815 5815 5814 5814
5774 5775 5777 5778 5778 5779 5780 5781 5783 5783 5785 5786 5787 5788 5789 5791 5792 5792 5793 5794 5795 5796 5797 5798 5798 5799 5800 5800 5801 5801 5802 5802 5803 5803 5804 5805 5805 5806 5806 5807 5808 5808 5808 5808 5809 5809 5809 5810 5810 5810 5810 5810 5810 5810 5811 5811 5811 5812 5812 5812 5812 5812 5812 5812 5812 5812 5812 5812 5812 5812 5812 5812 5812 5812 5812 5812 5812 5812 5812 5812 5813 5813 5812 5812 5811 5811 5811 5811 5811 5811 5811 5812 5812 5813 5813 5813 5813 5813 5813 5813 5813 5812 5812
5772 5773 5774 5775 5776 5777 5778 5779 5781 5782 5783 5784 5785 5786 5788 5788 5789 5790 5791 5792 5793 5793 5795 5795 5796 5797 5798 5798 5798 5799 5799 5800 5800 5801 5802 5802 5803 5803 5803 5804 5805 5805 5806 5806 5806 5807 5807 5807 5807 5807 5807 5807 5808 5808 5808 5808 5809 5809 5809 5809 5809 5809 5809 5809 5809 5809 5809 5809 5809 5809 5809 5809 5809 5809 5809 5809 5809 5809 5809 5809 5809 5810 5809 5809 5809 5808 5808 5808 5808 5808 5808 5809 5810 5811 5811 5811 5811 5811 5811 5810 5810 5809 5809
5770 5771 5772 5773 5774 5775 5776 5778 5778 5780 5781 5782 5783 5784 5785 5786 5787 5788 5789 5790 5791 5792 5793 5793 5794 5795 5795 5796 5796 5797 5797 5798 5798 5799 5799 5799 5800 5801 5801 5802 5802 5803 5803 5803 5804 5804 5804 5805 5805 5804 5804 5805 5805 5805 5806 5806 5806 5806 5806 5806 5806 5806 5806 5806 5806 5806 5806 5806 5805 5805 5805 5805 5805 5805 5806 5806 5806 5806 5806 5806 5806 5806 5806 5806 5806 5805 5805 5805 5805 5806 5807 5808 5808 5809 5809 5808 5808 5808 5807 5807 5807 5806 5806
5767 5769 5770 5771 5772 5773 5774 5775 5777 5778 5779 5780 5781 5782 5783 5784 5785 5786 5787 5788 5788 5789 5790 5791 5792 5793 5793 5793 5793 5794 5795 5795 5796 5797 5797 5797 5798 5798 5799 5799 5800 5800 5800 5801 5801 5802 5802 5802 5802 5802 5802 5802 5803 5803 5803 5803 5804 5803 5803 5803 5803 5803 5803 5803 5803 5803 5803 5803 5803 5802 5802 5802 5802 5802 5802 5802 5802 5802 5803 5803 5803 5803 5803 5803 5802 5802 5802 5803 5803 5805 5806 5807 5807 5807 5806 5805 5804 5804 5804 5803 5803 5803 5803
5765 5766 5768 5769 5770 5771 5772 5773 5774 5775 5777 5778 5778 5780 5781 5782 5783 5784 5784 5786 5786 5787 5788 5789 5789 5790 5790 5791 5791 5792 5792 5793 5794 5794 5795 5795 5795 5796 5796 5797 5797 5798 5798 5799 5799 5799 5800 5799 5799 5799 5799 5799 5800 5800 5801 5801 5801 5801 5801 5801 5801 5801 5801 5801 5800 5800 5800 5800 5799 5799 5799 5798 5798 5798 5799 5798 5798 5798 5799 5799 5799 5799 5799 5798 5798 5799 5800 5801 5803 5804 5804 5804 5804 5803 5802 5801 5801 5801 5800 5800 5800 5800 5799
5763 5764 5765 5766 5768 5769 5770 5771 5772 5773 5774 5775 5776 5777 5779 5780 5781 5782 5782 5783 5784 5785 5785 5786 5787 5787 5788 5788 5789 5789 5790 5790 5791 5792 5792 5793 5793 5793 5793 5794 5794 5795 5795 5796 5797 5796 5797 5797 5797 5797 5797 5797 5797 5798 5798 5798 5798 5798 5798 5798 5798 5798 5798 5798 5798 5798 5797 5797 5797 5796 5796 5795 5795 5795 5795 5795 5795 5795 5795 5795 5795 5795 5795 5795 5795 5797 5799 5801 5801 5802 5801 5801 5800 5799 5798 5798 5797 5797 5797 5797 5797 5797 5796
5760 5762 5763 5764 5765 5767 5768 5769 5770 5770 5771 5772 5773 5775 5776 5778 5778 5779 5780 5781 5781 5782 5783 5783 5784 5785 5785 5786 5786 5787 5788 5788 5788 5789 5790 5790 5791 5791 5791 5791 5792 5792 5792 5793 5794 5794 5794 5795 5795 5795 5794 5795 5795 5795 5795 5796 5795 5795 5795 5795 5795 5795 5794 5794 5794 5794 5794 5794 5793 5793 5793 5792 5792 5792 5792 5792 5791 5791 5792 5792 5792 5792 5792 5792 5793 5796 5798 5798 5798 5798 5798 5798 5797 5796 5795 5794 5793 5793 5793 5793 5793 5793 5793
5758 5759 5761 5762 5763 5764 5765 5766 5767 5768 5769 5770 5771 5773 5774 5775 5776 5777 5778 5778 5779 5779 5780 5781 5782 5783 5783 5784 5784 5784 5785 5785 5785 5786 5787 5788 5788 5789 5789 5789 5789 5790 5790 5791 5791 5791 5791 5792 5792 5792 5791 5793 5793 5793 5793 5793 5793 5793 5793 5793 5792 5792 5791 5791 5791 5791 5791 5790 5790 5790 5789 5789 5788 5788 5789 5788 5788 5789 5789 5789 5790 5789 5789 5790 5792 5794 5794 5794 5794 5794 5794 5794 5793 5792 5791 5790 5790 5789 5789 5788 5788 5788 5788
5756 5757 5758 5759 5761 5762 5763 5764 5765 5766 5766 5768 5769 5770 5771 5773 5773 5774 5775 5776 5776 5777 5777 5778 5779 5780 5781 5781 5782 5782 5782 5782 5783 5784 5785 5785 5786 5786 5786 5787 5787 5787 5788 5788 5788 5789 5789 5789 5790 5789 5788 5790 5791 5791 5790 5791 5791 5791 5790 5790 5790 5790 5789 5788 5788 5788 5788 5787 5787 5786 5785 5785 5785 5786 5786 5785 5784 5786 5787 5788 5788 5788 5788 5788 5789 5790 5790 5790 5791 5790 5790 5789 5789 5788 5788 5787 5786 5785 5785 5784 5784 5784 5784
5753 5755 5756 5757 5758 5759 5760 5761 5762 5763 5764 5765 5766 5768 5768 5770 5771 5772 5772 5773 5773 5774 5775 5776 5777 5777 5778 5778 5779 5779 5779 5779 5780 5782 5783 5783 5783 5783 5784 5784 5784 5785 5785 5786 5786 5786 5786 5786 5787 5787 5786 5787 5788 5788 5788 5788 5788 5788 5788 5788 5787 5787 5787 5786 5785 5785 5784 5784 5783 5783 5782 5782 5781 5781 5781 5782 5783 5784 5786 5786 5785 5784 5784 5784 5785 5785 5786 5786 5787 5786 5786 5785 5785 5784 5784 5783 5783 5782 5781 5780 5780 5780 5780
5751 5752 5753 5755 5756 5757 5758 5759 5760 5761 5762 5763 5764 5765 5766 5767 5768 5769 5769 5770 5771 5771 5772 5773 5774 5774 5775 5775 5776 5776 5776 5777 5778 5779 5780 5781 5781 5781 5782 5782 5782 5782 5783 5783 5783 5783 5783 5784 5784 5784 5784 5784 5784 5784 5785 5786 5785 5785 5785 5784 5784 5784 5784 5783 5782 5782 5781 5780 5780 5779 5779 5778 5778 5779 5779 5781 5783 5783 5783 5782 5782 5782 5781 5781 5781 5782 5782 5782 5782 5782 5782 5781 5781 5780 5780 5780 5779 5778 5778 5777 5776 5776 5776
5748 5749 5751 5752 5753 5754 5755 5756 5757 5758 5759 5760 5761 5763 5763 5764 5765 5766 5767 5767 5768 5768 5769 5770 5771 5772 5772 5773 5773 5773 5773 5774 5775 5777 5778 5778 5778 5779 5779 5780 5780 5780 5780 5780 5781 5781 5781 5781 5781 5781 5782 5782 5782 5782 5782 5782 5782 5782 5782 5781 5781 5781 5780 5780 5779 5778 5777 5777 5776 5776 5776 5777 5777 5777 5778 5779 5780 5780 5779 5778 5778 5778 5778 5777 5778 5778 5778 5778 5778 5778 5778 5778 5777 5777 5777 5776 5776 5775 5774 5773 5773 5772 5773
5745 5747 5748 5749 5750 5751 5752 5753 5754 5755 5757 5758 5759 5760 5761 5762 5762 5763 5764 5764 5765 5766 5767 5767 5768 5769 5769 5769 5770 5770 5771 5772 5773 5773 5775 5775 5775 5776 5777 5778 5778 5777 5778 5778 5778 5778 5778 5778 5778 5778 5779 5779 5780 5780 5779 5778 5778 5778 5778 5778 5778 5778 5777 5776 5775 5774 5773 5773 5773 5773 5775 5775 5775 5775 5775 5776 5776 5776 5776 5775 5775 5774 5774 5773 5774 5774 5774 5774 5775 5775 5775 5774 5774 5773 5773 5773 5772 5772 5771 5770 5769 5769 5768